sat.trackr.live / text

‹ back to catalog

2025-197A

NORAD 65488 · 2025-197A

PAYLOAD ACTIVE UNKNOWN

§ Identity

Operator
Country
PRC
Launch date
2025-09-05
Launch site
JSC
Launch vehicle
Mass (kg)
RCS (m²)

External: N2YO · Heavens-Above · Gunter

§ Orbital elements

Epoch: 2026-09-20T10:35:18.664800Z

Period
95.30 min
Inclination
97.4171°
Eccentricity
0.0014790
Mean motion
15.10979344 rev/d
Perigee alt
523.0 km
Apogee alt
543.4 km
Semi-major
6,911.3 km
B*
1.3574e-4
RAAN
82.6312°
Arg perigee
63.6346°
Mean anomaly
296.6401°
Rev number
5,739

§ Raw data

2025-197A1 65488U 25197A   26263.44118825  .00002208  00000+0  13574-3 0  99912 65488  97.4171  82.6312 0014790  63.6346 296.6401 15.10979344 57398

JSON: /api/v1/satellites/65488 · /tle

For live sub-satellite position, see the globe view (requires WebGL).

§ Visibility from observer

Set your observer location to see the next 7 days of passes ≥ 10°. The values pass through the URL so the page stays shareable.

No JS? Fill the form by hand. The geolocation button needs JavaScript.